[[{"header":{"parameterUnit":"m.s-1","parameterCategory":1,"la1":30.2991,"la2":30.254,"lo1":-89.0895,"lo2":-89.0444,"dy":0.0017,"dx":0.0017,"nx":28,"ny":28,"refTime":"2024-05-23T09:00:00:Z","depth":0,"parameterNumber":2,"parameterNumberName":"U-component_of_WINDS"},"data":[0,0,0,0,0,0,0,0,0,0,0,0,0,0,0,0,0,0,0,0,0,0,0,0,0,0,0,0,0,0,0,0,0,0,0,0,0,0,0,0,0,0,0,0,0,0,0,0,0,0,0,0,0,0,0,0,0,0,-1.4439,-1.4439,0,-1.4366,-1.4365,-1.4364,-1.4338,-1.4338,-1.4338,-1.4339,-1.426,-1.4258,-1.4255,0,0,0,0,0,0,0,0,0,0,0,0,0,-1.4554,-1.4552,-1.4439,-1.4438,-1.4438,-1.4366,-1.4365,-1.4364,-1.4338,-1.4338,-1.4339,-1.4339,-1.4261,-1.4258,-1.4255,0,0,0,0,0,0,0,0,0,0,0,0,0,-1.4495,-1.4551,-1.444,-1.4416,-1.4413,-1.4367,-1.4365,-1.4364,-1.4338,-1.4338,-1.4339,-1.4339,-1.4262,-1.4258,-1.4255,-1.4225,0,0,-1.4244,-1.4243,0,0,0,0,0,0,0,0,-1.4498,-1.449,-1.442,-1.4417,-1.4414,-1.4362,-1.4377,-1.4317,-1.4338,-1.4366,-1.4339,-1.4339,-1.4293,-1.4287,-1.4273,-1.4222,-1.4218,-1.4244,-1.4242,-1.424,-1.4239,0,0,0,0,0,0,0,-1.4502,-1.4493,-1.441,-1.4419,-1.4416,-1.4408,-1.44,-1.4365,-1.4328,-1.4364,-1.4362,-1.4354,-1.4292,-1.4276,-1.427,-1.4217,-1.4244,-1.4241,-1.4239,-1.4237,-1.4139,-1.4139,0,0,0,0,0,0,-1.451,-1.4497,-1.4413,-1.4408,-1.4458,-1.4406,-1.4397,-1.4378,-1.4329,-1.4322,-1.4353,-1.4353,-1.4282,-1.4275,-1.4268,-1.423,-1.424,-1.4237,-1.4235,-1.414,-1.4139,-1.4138,0,0,0,0,0,0,-1.4513,-1.4503,-1.4416,-1.4452,-1.444,-1.4403,-1.4382,-1.4376,-1.4361,-1.4321,-1.4314,-1.4344,-1.4282,-1.4273,-1.4236,-1.4227,-1.4235,-1.4232,-1.414,-1.4139,-1.4139,-1.4154,0,0,0,0,0,0,-1.4516,-1.4504,-1.4493,-1.4452,-1.4438,-1.4386,-1.4382,-1.4375,-1.4355,-1.4354,-1.431,-1.4304,-1.4281,-1.4242,-1.4233,-1.4222,-1.4229,-1.4141,-1.414,-1.4139,-1.4155,-1.4154,-1.4154,0,0,0,0,0,-1.4521,-1.45,-1.4493,-1.4483,-1.4424,-1.4386,-1.4378,-1.4354,-1.4355,-1.4343,-1.4317,-1.4305,-1.423,-1.4238,-1.4228,-1.4216,-1.4141,-1.414,-1.4139,-1.4155,-1.4154,-1.4154,0,0,0,0,0,0,-1.4539,-1.4494,-1.4486,-1.4451,-1.4423,-1.4382,-1.4366,-1.4354,-1.4324,-1.4324,-1.4294,-1.4285,-1.4251,-1.423,-1.4241,-1.4185,-1.4185,-1.4181,-1.42,-1.42,-1.4199,-1.4205,-1.4227,0,0,0,0,0,-1.454,-1.4513,-1.4475,-1.4448,-1.4434,-1.4403,-1.4385,-1.4369,-1.4338,-1.4326,-1.4298,-1.4267,-1.4237,-1.4217,-1.4187,-1.4152,-1.4142,-1.4139,-1.4139,-1.4139,-1.4136,-1.4116,-1.4114,-1.4135,-1.4135,-1.4135,0,0,-1.4539,-1.4511,-1.4496,-1.4451,-1.4427,-1.44,-1.4393,-1.4364,-1.4343,-1.4321,-1.4286,-1.4264,-1.4228,-1.4193,-1.4176,-1.4174,-1.4128,-1.4137,-1.4137,-1.4134,-1.4115,-1.4113,-1.4111,-1.4134,-1.4134,-1.4134,0,0,-1.4525,-1.4501,-1.4477,-1.4453,-1.4418,-1.4398,-1.4392,-1.4353,-1.4338,-1.4303,-1.4286,-1.426,-1.4208,-1.4184,-1.4164,-1.4142,-1.413,-1.4133,-1.4132,-1.4113,-1.4111,-1.4109,-1.4101,-1.4099,-1.4131,-1.4131,-1.4131,0,-1.4529,-1.4488,-1.4465,-1.4438,-1.4418,-1.4399,-1.4373,-1.4351,-1.4307,-1.4294,-1.4293,-1.4229,-1.4203,-1.4162,-1.4157,-1.4142,-1.4134,-1.4137,-1.4113,-1.4112,-1.411,-1.4102,-1.4099,-1.4132,-1.4132,-1.4131,-1.4131,0,-1.4494,-1.4467,-1.4451,-1.4411,-1.4389,-1.4363,-1.4335,-1.4316,-1.4303,-1.4282,-1.4246,-1.4215,-1.4179,-1.4168,-1.4154,-1.4125,-1.4125,-1.4119,-1.4118,-1.4109,-1.4101,-1.4097,-1.4132,-1.4132,-1.4132,-1.4132,0,0,-1.4488,-1.4437,-1.4431,-1.4413,-1.4374,-1.4351,-1.4324,-1.429,-1.4274,-1.4245,-1.4221,-1.4179,-1.4174,-1.4152,-1.4135,-1.4119,-1.4103,-1.4115,-1.4113,-1.4113,-1.4069,-1.4073,-1.407,-1.4096,-1.4095,-1.4094,-1.4072,0,-1.4468,-1.442,-1.4399,-1.436,-1.4334,-1.4315,-1.4292,-1.4265,-1.4245,-1.422,-1.4197,-1.4168,-1.4164,-1.415,-1.4134,-1.4109,-1.4094,-1.411,-1.4072,-1.4071,-1.4081,-1.4066,-1.407,-1.405,-1.4069,-1.4068,-1.4068,0,-1.4438,-1.441,-1.4369,-1.4334,-1.4322,-1.4301,-1.4268,-1.4245,-1.4214,-1.42,-1.4177,-1.4161,-1.4132,-1.4134,-1.4092,-1.4104,-1.4087,-1.4073,-1.4071,-1.4066,-1.4068,-1.406,-1.4044,-1.4041,-1.4063,-1.4063,-1.4064,0,-1.4437,-1.439,-1.4359,-1.4344,-1.4302,-1.4288,-1.4269,-1.4239,-1.422,-1.4191,-1.4179,-1.4146,-1.4129,-1.4104,-1.408,-1.4083,-1.404,-1.404,-1.4028,-1.4028,-1.4018,-1.4019,-1.3999,-1.4009,-1.4009,-1.4009,-1.401,0,-1.4416,-1.4392,-1.4358,-1.4339,-1.4311,-1.4287,-1.426,-1.424,-1.4213,-1.419,-1.4172,-1.415,-1.412,-1.4094,-1.4075,-1.4044,-1.4036,-1.4024,-1.4019,-1.4025,-1.4026,-1.4012,-1.4013,-1.4009,-1.4009,-1.4009,-1.4009,0,-1.441,-1.4387,-1.4352,-1.4316,-1.4306,-1.4287,-1.4255,-1.4236,-1.4217,-1.4187,-1.4179,-1.4147,-1.4116,-1.409,-1.4049,-1.4036,-1.4003,-1.3997,-1.4014,-1.4011,-1.4,-1.4001,-1.397,-1.3964,-1.3979,-1.3979,-1.3979,0,-1.4398,-1.4379,-1.4341,-1.4325,-1.4307,-1.4281,-1.4262,-1.4238,-1.4219,-1.4183,-1.4168,-1.4136,-1.4109,-1.406,-1.4033,-1.4001,-1.3994,-1.3985,-1.3989,-1.3996,-1.3993,-1.3995,-1.3992,-1.3985,-1.3985,-1.3985,-1.3985,0,-1.4379,-1.4369,-1.4343,-1.4313,-1.4291,-1.4266,-1.4241,-1.4228,-1.4199,-1.4179,-1.4147,-1.4127,-1.4085,-1.4054,-1.4019,-1.4,-1.3987,-1.3984,-1.3979,-1.3985,-1.3995,-1.3989,-1.4012,-1.3984,-1.3984,-1.3984,-1.3984,-1.3984,-1.4369,-1.4351,-1.4322,-1.4294,-1.4273,-1.425,-1.423,-1.4209,-1.4183,-1.4148,-1.4135,-1.4103,-1.4073,-1.4027,-1.4007,-1.3981,-1.3979,-1.3973,-1.3971,-1.3969,-1.397,-1.4,-1.3975,-1.3975,-1.3975,-1.3975,-1.3975,0,-1.4349,-1.433,-1.4304,-1.427,-1.4247,-1.424,-1.4211,-1.4193,-1.4165,-1.4139,-1.4113,-1.4078,-1.4047,-1.4019,-1.3987,-1.3971,-1.3965,-1.3964,-1.3964,-1.3959,-1.3974,-1.3981,-1.3969,-1.3969,-1.3969,-1.3969,-1.3969,-1.3969,-1.4335,-1.4305,-1.4292,-1.4251,-1.4232,-1.4201,-1.4186,-1.4164,-1.4143,-1.4105,-1.408,-1.4062,-1.4035,-1.4001,-1.3972,-1.3965,-1.3953,-1.3954,-1.3944,-1.3958,-1.3958,-1.3959,-1.3966,-1.3952,-1.3951,-1.3932,-1.3932,-1.3932]},{"header":{"parameterUnit":"m.s-1","parameterCategory":1,"la1":30.2991,"la2":30.254,"lo1":-89.0895,"lo2":-89.0444,"dy":0.0017,"dx":0.0017,"nx":28,"ny":28,"refTime":"2024-05-23T09:00:00:Z","depth":0,"parameterNumber":3,"parameterNumberName":"V-component_of_WINDS"},"data":[0,0,0,0,0,0,0,0,0,0,0,0,0,0,0,0,0,0,0,0,0,0,0,0,0,0,0,0,0,0,0,0,0,0,0,0,0,0,0,0,0,0,0,0,0,0,0,0,0,0,0,0,0,0,0,0,0,0,3.9776,3.9776,0,3.9768,3.9768,3.9767,3.9782,3.9783,3.9783,3.9784,3.9771,3.977,3.9769,0,0,0,0,0,0,0,0,0,0,0,0,0,3.9804,3.9803,3.9776,3.9776,3.9776,3.9768,3.9768,3.9767,3.9782,3.9783,3.9783,3.9784,3.9771,3.977,3.9769,0,0,0,0,0,0,0,0,0,0,0,0,0,3.9793,3.9803,3.9776,3.9783,3.9783,3.9768,3.9768,3.9767,3.9782,3.9783,3.9783,3.9784,3.9772,3.977,3.9769,3.9746,0,0,3.9765,3.9765,0,0,0,0,0,0,0,0,3.9794,3.9792,3.9782,3.9782,3.9783,3.9777,3.9773,3.976,3.9782,3.9782,3.9784,3.9785,3.9772,3.9771,3.9767,3.9746,3.9745,3.9765,3.9765,3.9764,3.9764,0,0,0,0,0,0,0,3.9794,3.9792,3.9773,3.9782,3.9782,3.9785,3.9784,3.977,3.9773,3.9782,3.9783,3.9782,3.9772,3.9769,3.9767,3.9745,3.9765,3.9764,3.9764,3.9763,3.9705,3.9704,0,0,0,0,0,0,3.9795,3.9793,3.9773,3.9773,3.979,3.9784,3.9783,3.9778,3.9773,3.9773,3.9782,3.9783,3.977,3.9769,3.9767,3.9741,3.9764,3.9763,3.9762,3.9706,3.9705,3.9704,0,0,0,0,0,0,3.9795,3.9793,3.9774,3.9783,3.9781,3.9783,3.9777,3.9777,3.9774,3.9773,3.9773,3.9777,3.9771,3.9769,3.9752,3.974,3.9762,3.9761,3.9707,3.9706,3.9705,3.9687,0,0,0,0,0,0,3.9796,3.9793,3.9785,3.9783,3.978,3.9759,3.9776,3.9777,3.9772,3.9773,3.9769,3.9769,3.9771,3.9754,3.9751,3.9739,3.976,3.9708,3.9706,3.9705,3.9689,3.9685,3.9683,0,0,0,0,0,3.9797,3.9779,3.9784,3.9782,3.977,3.9759,3.9757,3.9761,3.9771,3.9762,3.9762,3.9769,3.9742,3.9752,3.9748,3.9736,3.9709,3.9707,3.9705,3.969,3.9686,3.9683,0,0,0,0,0,0,3.9778,3.9779,3.9784,3.9766,3.9762,3.9761,3.975,3.9757,3.975,3.9751,3.9756,3.9755,3.9737,3.9735,3.9746,3.9715,3.9727,3.9724,3.9717,3.9713,3.971,3.9711,3.9759,0,0,0,0,0,3.9772,3.9763,3.9764,3.9747,3.9745,3.9748,3.9743,3.9747,3.9743,3.9741,3.974,3.9735,3.9725,3.9719,3.971,3.9689,3.9688,3.9679,3.9676,3.9673,3.9671,3.966,3.9657,3.9698,3.9698,3.9698,0,0,3.9758,3.9758,3.9752,3.9743,3.9741,3.9732,3.9747,3.9735,3.9728,3.9739,3.9724,3.9723,3.9717,3.9699,3.969,3.9696,3.966,3.9671,3.9669,3.9668,3.9658,3.9654,3.9651,3.9697,3.9697,3.9697,0,0,3.9729,3.9728,3.9714,3.9712,3.9709,3.9712,3.9708,3.9707,3.9707,3.9692,3.97,3.9691,3.9675,3.9671,3.9667,3.9639,3.9645,3.9636,3.962,3.9609,3.9606,3.9603,3.9594,3.959,3.9633,3.9633,3.9633,0,3.9712,3.9699,3.9706,3.9695,3.9692,3.9703,3.9689,3.9686,3.968,3.9677,3.9684,3.9665,3.9662,3.9643,3.9636,3.9632,3.9629,3.9636,3.9606,3.9603,3.9601,3.9592,3.9588,3.9632,3.9632,3.9632,3.9633,0,3.9679,3.967,3.966,3.9655,3.965,3.9638,3.9642,3.9636,3.9641,3.9643,3.9628,3.9625,3.9616,3.9612,3.9616,3.9594,3.9598,3.9606,3.9618,3.9596,3.9587,3.9584,3.9631,3.9631,3.9631,3.9632,0,0,3.9637,3.9638,3.9634,3.9633,3.9631,3.9624,3.9612,3.9605,3.96,3.9596,3.9586,3.9573,3.958,3.9576,3.9579,3.957,3.9549,3.9579,3.9579,3.9574,3.9525,3.952,3.9516,3.9553,3.9552,3.9552,3.9526,0,3.9609,3.959,3.9596,3.9577,3.9569,3.958,3.957,3.9567,3.9569,3.9561,3.9562,3.9553,3.9564,3.9561,3.9553,3.9553,3.9539,3.9555,3.9544,3.9543,3.9545,3.9511,3.9505,3.948,3.9523,3.9522,3.9522,0,3.9573,3.9569,3.9549,3.955,3.9547,3.9538,3.9533,3.9526,3.9524,3.9525,3.9521,3.9527,3.9515,3.9528,3.9512,3.9523,3.9519,3.9518,3.9518,3.9517,3.9531,3.9509,3.9473,3.9469,3.9516,3.9517,3.9517,0,3.9545,3.9534,3.9522,3.952,3.9521,3.9514,3.9514,3.9513,3.9508,3.9504,3.9501,3.9495,3.9491,3.9486,3.949,3.9498,3.9473,3.9486,3.9474,3.9474,3.9468,3.9468,3.943,3.9465,3.9465,3.9465,3.9465,0,3.9512,3.95,3.9509,3.9501,3.9488,3.9495,3.9481,3.9482,3.9481,3.9473,3.9482,3.9474,3.948,3.9473,3.9476,3.9462,3.946,3.9461,3.9462,3.9461,3.9461,3.9458,3.946,3.9464,3.9464,3.9464,3.9464,0,3.9478,3.9484,3.9471,3.9474,3.9474,3.9464,3.9466,3.9458,3.9461,3.9451,3.9449,3.9453,3.9445,3.9448,3.9439,3.9441,3.9425,3.9427,3.9426,3.9427,3.9415,3.9416,3.9373,3.9369,3.9406,3.9406,3.9405,0,3.9458,3.9449,3.9451,3.9447,3.9447,3.944,3.9437,3.9444,3.944,3.9437,3.943,3.9423,3.9418,3.9405,3.9406,3.94,3.9403,3.9389,3.9402,3.9401,3.9403,3.9404,3.9403,3.9386,3.9385,3.9385,3.9385,0,3.942,3.9424,3.9419,3.9416,3.9412,3.9409,3.9407,3.9403,3.9411,3.9405,3.9398,3.9395,3.9387,3.938,3.9374,3.9373,3.938,3.9381,3.9378,3.9376,3.9376,3.9376,3.9419,3.9381,3.9382,3.9382,3.9382,3.9382,3.9393,3.9386,3.9387,3.9382,3.9381,3.9379,3.9373,3.9376,3.937,3.9365,3.937,3.9361,3.936,3.9354,3.9352,3.9346,3.9351,3.9346,3.9345,3.9344,3.9343,3.9377,3.9344,3.9344,3.9345,3.9345,3.9345,0,3.9356,3.9358,3.9353,3.9351,3.9347,3.9356,3.9354,3.935,3.9343,3.9342,3.9337,3.9329,3.9323,3.9325,3.9319,3.9313,3.9316,3.9312,3.9312,3.9312,3.9338,3.9341,3.9309,3.9309,3.9309,3.9309,3.9309,3.9309,3.9337,3.9326,3.933,3.9319,3.9321,3.9314,3.9312,3.9311,3.931,3.9302,3.9297,3.9299,3.9299,3.9294,3.9288,3.9289,3.9287,3.9281,3.9283,3.9307,3.931,3.9313,3.9317,3.928,3.928,3.9257,3.9257,3.9257]}]]